Weather History for Forrest, WE

Change the Weather History Date:

Saturday, January 5, 2013

  Actual Average Record
Temperature  
Mean Temperature 78 °F -  
Max Temperature 93 °F - - ()
Min Temperature 63 °F - - ()
Cooling Degree Days 13    
Growing Degree Days 28 (Base 50)    
Moisture  
Dew Point 54 °F    
Average Humidity 50    
Maximum Humidity 89    
Minimum Humidity 10    
Precipitation  
Precipitation 0.00 in - - ()
Sea Level Pressure  
Sea Level Pressure 30.00 in    
Wind  
Wind Speed 13 mph ()    
Max Wind Speed 22 mph    
Max Gust Speed 29 mph    
T = Trace of Precipitation, MM = Missing Value Source: Averaged Metar Reports

Daily Weather History Graph

Daily Weather History Graph

Search for Another Location

Airport:

Trip Planner

Search our weather history database for the weather conditions in past years. The results will help you decide how hot, cold, wet, or windy it might be!

Date:

Astronomy

Jan. 05, 2013 Rise Set
Actual Time 4:30 AM AWST 6:34 PM AWST
Civil Twilight 4:03 AM AWST 7:02 PM AWST
Nautical Twilight 3:29 AM AWST 7:35 PM AWST
Astronomical Twilight 2:53 AM AWST 8:11 PM AWST
Moon 11:15 PM AWST (1/5) 11:38 AM AWST (1/5)
Length of Visible Light 14h 59m
Length of Day
14h 04m
Waning Gibbous, 50% of the Moon is Illuminated
Jan 5
Waning Gibbous
Jan 12
New
Jan 19
First Quarter
Jan 27
Full
Feb 3
Last Quarter

Hourly Weather History & Observations

Time (AWST) Temp. Heat Index Dew Point Humidity Pressure Visibility Wind Dir Wind Speed Gust Speed Precip Events Conditions
12:00 AM 67 °F - 53 °F 52% 29.93 in - SE 11.5 mph - -  
12:00 AM 66.2 °F - 53.6 °F 64% 29.95 in - SE 11.5 mph - N/A   Unknown
1:00 AM 66.2 °F - 55.4 °F 68% 29.95 in - SE 9.2 mph - N/A   Unknown
2:00 AM 65 °F - 56 °F 66% 29.96 in - ESE 6.9 mph - -  
2:00 AM 66.2 °F - 57.2 °F 73% 29.98 in - ESE 6.9 mph - N/A   Unknown
3:00 AM 64 °F - 56 °F 68% 29.97 in - SE 6.9 mph - -  
3:00 AM 64.4 °F - 55.4 °F 73% 29.98 in - SE 6.9 mph - N/A   Unknown
4:00 AM 62.6 °F - 59.0 °F 88% 29.98 in - SE 6.9 mph - N/A   Unknown
5:00 AM 64 °F - 62 °F 89% 29.99 in - SE 8.1 mph - -  
5:00 AM 64.4 °F - 60.8 °F 88% 30.01 in - SE 8.1 mph - N/A   Unknown
5:46 AM 68.0 °F - 62.6 °F 83% 30.01 in - ESE 17.3 mph - N/A   Unknown
6:00 AM 68 °F - 61 °F 73% 30.00 in - ESE 19.6 mph - -  
6:00 AM 68.0 °F - 60.8 °F 78% 30.01 in - ESE 19.6 mph - N/A   Unknown
7:00 AM 71.6 °F - 59.0 °F 64% 30.04 in - ESE 17.3 mph - N/A   Unknown
8:00 AM 75 °F - 55 °F 39% 30.00 in - ESE 19.6 mph - -  
8:00 AM 75.2 °F - 55.4 °F 50% 30.01 in - ESE 19.6 mph - N/A   Unknown
9:00 AM 78 °F - 53 °F 31% 30.02 in - ESE 13.8 mph - -  
9:00 AM 77.0 °F - 53.6 °F 44% 30.04 in - ESE 13.8 mph - N/A   Unknown
10:00 AM 82.4 °F 81.4 °F 53.6 °F 37% 30.04 in - SE 15.0 mph - N/A   Unknown
11:00 AM 85 °F - 51 °F 21% 30.00 in - SE 16.1 mph - -  
11:00 AM 86.0 °F - 51.8 °F 31% 30.01 in - SE 16.1 mph - N/A   Unknown
12:00 PM 89 °F - 48 °F 15% 29.99 in - SE 16.1 mph - -  
12:00 PM 87.8 °F - 48.2 °F 25% 30.01 in - SE 16.1 mph - N/A   Unknown
1:00 PM 89.6 °F - 46.4 °F 22% 29.98 in - SE 15.0 mph - N/A   Unknown
2:00 PM 92 °F - 44 °F 11% 29.96 in - SE 16.1 mph - -  
2:00 PM 91.4 °F - 44.6 °F 20% 29.98 in - SE 16.1 mph - N/A   Unknown
2:18 PM 91.4 °F - 42.8 °F 18% 29.98 in - SE 17.3 mph 28.8 mph N/A   Unknown
3:00 PM 91 °F - 41 °F 10% 29.96 in - SE 18.4 mph - -  
3:00 PM 91.4 °F - 41.0 °F 17% 29.98 in - SE 18.4 mph - N/A   Unknown
4:00 PM 89.6 °F - 46.4 °F 22% 29.98 in - SE 18.4 mph - N/A   Unknown
5:00 PM 86.0 °F - 50.0 °F 29% 29.98 in - SE 19.6 mph - N/A   Unknown
6:00 PM 79 °F - 53 °F 30% 30.01 in - SE 21.9 mph - -  
6:00 PM 78.8 °F - 53.6 °F 42% 30.01 in - SE 21.9 mph - N/A   Unknown
7:00 PM 73.4 °F - 55.4 °F 53% 30.04 in - ESE 21.9 mph - N/A   Unknown
8:00 PM 70 °F - 55 °F 50% 30.06 in - ESE 21.9 mph - -  
8:00 PM 69.8 °F - 55.4 °F 60% 30.06 in - ESE 21.9 mph - N/A   Unknown
9:00 PM 68 °F - 56 °F 58% 30.06 in - ESE 19.6 mph - -  
9:00 PM 68.0 °F - 57.2 °F 68% 30.06 in - ESE 19.6 mph - N/A   Unknown
10:00 PM 66.2 °F - 57.2 °F 73% 30.06 in - ESE 17.3 mph - N/A   Unknown
11:00 PM 66 °F - 58 °F 69% 30.07 in - ESE 16.1 mph - -  
11:00 PM 66.2 °F - 59.0 °F 78% 30.06 in - ESE 16.1 mph - N/A   Unknown